�������l�o���
Date,Time,MP-1(��Sv/h),MP-2(��Sv/h),MP-3(��Sv/h),MP-4(��Sv/h),MP-5(��Sv/h),MP-6(��Sv/h),MP-7(��Sv/h),����,����(m/s),���J
2016/05/03,00:00,0.450,0.261,0.468,0.417,0.390,0.211,0.183,��쐼,8.7,��
2016/05/03,00:10,0.447,0.260,0.471,0.414,0.389,0.210,0.183,��쐼,9.6,��
2016/05/03,00:20,0.451,0.259,0.469,0.416,0.391,0.212,0.184,��쐼,9.7,��
2016/05/03,00:30,0.446,0.260,0.468,0.414,0.389,0.211,0.184,��쐼,8.3,��
2016/05/03,00:40,0.450,0.259,0.472,0.414,0.392,0.211,0.184,��쐼,7.6,��
2016/05/03,00:50,0.447,0.260,0.467,0.416,0.390,0.212,0.184,��쐼,8.4,��
2016/05/03,01:00,0.447,0.260,0.471,0.413,0.390,0.210,0.183,��쐼,8.1,��
2016/05/03,01:10,0.450,0.259,0.469,0.414,0.390,0.212,0.183,��쐼,8.2,��
2016/05/03,01:20,0.445,0.261,0.470,0.413,0.391,0.211,0.183,��쐼,9.8,��
2016/05/03,01:30,0.450,0.259,0.469,0.413,0.391,0.210,0.184,��쐼,10.4,��
2016/05/03,01:40,0.446,0.260,0.470,0.415,0.389,0.212,0.183,��쐼,8.1,��
2016/05/03,01:50,0.450,0.260,0.471,0.413,0.391,0.211,0.183,��쐼,8.2,��
2016/05/03,02:00,0.447,0.258,0.468,0.415,0.389,0.211,0.184,��쐼,8.1,��
2016/05/03,02:10,0.449,0.260,0.472,0.413,0.392,0.210,0.183,��쐼,8.0,��
2016/05/03,02:20,0.447,0.260,0.468,0.415,0.390,0.211,0.183,��,8.9,��
2016/05/03,02:30,0.447,0.259,0.472,0.412,0.388,0.211,0.184,��쐼,8.1,��
2016/05/03,02:40,0.448,0.260,0.469,0.414,0.392,0.211,0.183,��쐼,7.0,��
2016/05/03,02:50,0.444,0.261,0.470,0.413,0.389,0.211,0.183,��쐼,6.7,��
2016/05/03,03:00,0.450,0.260,0.468,0.413,0.392,0.211,0.184,��쐼,7.5,��
2016/05/03,03:10,0.447,0.260,0.470,0.416,0.388,0.210,0.184,��쐼,7.6,��
2016/05/03,03:20,0.448,0.260,0.469,0.412,0.390,0.211,0.183,��쐼,8.4,��
2016/05/03,03:30,0.447,0.261,0.471,0.414,0.391,0.210,0.183,��쐼,9.0,��
2016/05/03,03:40,0.447,0.258,0.470,0.413,0.389,0.211,0.183,��쐼,8.3,��
2016/05/03,03:50,0.448,0.259,0.469,0.414,0.390,0.210,0.184,��쐼,7.0,��
2016/05/03,04:00,0.447,0.259,0.473,0.413,0.389,0.211,0.183,��쐼,7.5,��
2016/05/03,04:10,0.449,0.259,0.468,0.412,0.392,0.211,0.184,��쐼,7.7,��
2016/05/03,04:20,0.446,0.260,0.472,0.416,0.390,0.211,0.183,��쐼,7.5,��
2016/05/03,04:30,0.450,0.259,0.467,0.412,0.394,0.211,0.184,��쐼,7.2,��
2016/05/03,04:40,0.446,0.261,0.471,0.416,0.391,0.210,0.183,��쐼,7.6,��
2016/05/03,04:50,0.450,0.260,0.468,0.413,0.393,0.211,0.183,��쐼,7.3,��
2016/05/03,05:00,0.447,0.260,0.470,0.415,0.390,0.210,0.183,��쐼,5.1,��
2016/05/03,05:10,0.448,0.262,0.470,0.414,0.391,0.212,0.183,��쐼,3.3,��
2016/05/03,05:20,0.449,0.259,0.470,0.414,0.392,0.212,0.184,�쐼,5.1,��
2016/05/03,05:30,0.448,0.261,0.471,0.415,0.390,0.211,0.184,��쐼,6.9,��
2016/05/03,05:40,0.450,0.260,0.470,0.414,0.393,0.211,0.184,��,5.8,��
2016/05/03,05:50,0.447,0.260,0.474,0.416,0.390,0.212,0.184,��쐼,4.1,��
2016/05/03,06:00,0.452,0.260,0.468,0.413,0.392,0.213,0.185,��쐼,4.0,��
2016/05/03,06:10,0.447,0.260,0.473,0.413,0.390,0.211,0.184,��쐼,4.9,��
2016/05/03,06:20,0.449,0.262,0.470,0.414,0.391,0.211,0.185,��쐼,5.4,��
2016/05/03,06:30,0.447,0.259,0.471,0.413,0.390,0.211,0.184,��,5.2,��
2016/05/03,06:40,0.448,0.260,0.469,0.416,0.389,0.210,0.183,��쐼,5.0,��
2016/05/03,06:50,0.451,0.259,0.470,0.412,0.391,0.211,0.185,��쐼,4.2,��
2016/05/03,07:00,0.446,0.260,0.471,0.415,0.389,0.211,0.183,��쐼,4.3,��
2016/05/03,07:10,0.449,0.260,0.471,0.413,0.391,0.211,0.184,��쐼,5.5,��
2016/05/03,07:20,0.446,0.259,0.466,0.413,0.390,0.210,0.184,��쐼,6.1,��
2016/05/03,07:30,0.449,0.259,0.473,0.414,0.391,0.211,0.182,��쐼,7.8,��
2016/05/03,07:40,0.444,0.260,0.464,0.410,0.392,0.211,0.182,��쐼,8.9,��
2016/05/03,07:50,0.449,0.256,0.469,0.415,0.386,0.212,0.183,��,9.2,��
2016/05/03,08:00,0.447,0.260,0.468,0.412,0.392,0.209,0.181,��,10.1,��
2016/05/03,08:10,0.445,0.261,0.468,0.409,0.389,0.211,0.183,��,9.8,��
2016/05/03,08:20,0.447,0.258,0.470,0.412,0.386,0.211,0.182,��,9.0,��
2016/05/03,08:30,0.444,0.257,0.467,0.415,0.391,0.210,0.182,��,8.9,��
2016/05/03,08:40,0.443,0.261,0.471,0.411,0.390,0.212,0.181,��,9.3,��
2016/05/03,08:50,0.448,0.260,0.469,0.408,0.386,0.210,0.184,��,11.2,��
2016/05/03,09:00,0.445,0.259,0.465,0.411,0.391,0.210,0.182,��,12.0,��
2016/05/03,09:10,0.443,0.257,0.471,0.413,0.391,0.212,0.182,��,13.1,��
2016/05/03,09:20,0.446,0.259,0.468,0.413,0.390,0.210,0.182,��쐼,12.7,��
2016/05/03,09:30,0.448,0.260,0.466,0.411,0.385,0.210,0.184,��,12.8,��
2016/05/03,09:40,0.446,0.259,0.472,0.409,0.393,0.210,0.183,��,14.8,��
2016/05/03,09:50,0.442,0.258,0.468,0.412,0.392,0.211,0.182,��쐼,13.3,��
2016/05/03,10:00,0.448,0.260,0.466,0.417,0.388,0.212,0.184,��,12.8,��
2016/05/03,10:10,0.449,0.260,0.472,0.416,0.389,0.211,0.185,��,13.2,��
2016/05/03,10:20,0.447,0.260,0.469,0.412,0.394,0.211,0.183,��,14.0,��
2016/05/03,10:30,0.444,0.257,0.466,0.409,0.392,0.211,0.184,��,14.4,��
2016/05/03,10:40,0.446,0.259,0.465,0.415,0.388,0.210,0.183,��,14.8,��
2016/05/03,10:50,0.450,0.260,0.468,0.417,0.387,0.210,0.183,��,14.9,��
2016/05/03,11:00,0.448,0.260,0.471,0.413,0.392,0.211,0.185,��,15.4,��
2016/05/03,11:10,0.444,0.259,0.468,0.412,0.392,0.210,0.184,��,16.9,��
2016/05/03,11:20,0.448,0.261,0.466,0.417,0.387,0.210,0.183,��,16.5,��
2016/05/03,11:30,0.450,0.262,0.467,0.417,0.390,0.210,0.185,��,17.1,��
2016/05/03,11:40,0.447,0.258,0.470,0.412,0.394,0.211,0.183,��,17.1,��
2016/05/03,11:50,0.442,0.259,0.470,0.412,0.391,0.209,0.182,��,15.4,��
2016/05/03,12:00,0.448,0.259,0.467,0.417,0.388,0.211,0.184,��,16.8,��
2016/05/03,12:10,0.450,0.261,0.466,0.417,0.393,0.211,0.183,��,17.5,��
2016/05/03,12:20,0.445,0.259,0.471,0.413,0.392,0.210,0.183,��,15.6,��
2016/05/03,12:30,0.446,0.259,0.472,0.414,0.389,0.211,0.184,��,16.5,��
2016/05/03,12:40,0.452,0.262,0.468,0.416,0.391,0.211,0.182,��,16.3,��
2016/05/03,12:50,0.449,0.261,0.465,0.415,0.392,0.209,0.183,��,15.4,��
2016/05/03,13:00,0.446,0.259,0.472,0.412,0.389,0.211,0.184,��,18.5,��
2016/05/03,13:10,0.452,0.260,0.472,0.417,0.390,0.211,0.183,��,19.4,��
2016/05/03,13:20,0.449,0.261,0.469,0.415,0.393,0.209,0.184,��,17.4,��
2016/05/03,13:30,0.447,0.259,0.467,0.412,0.390,0.210,0.184,��,16.3,��
2016/05/03,13:40,0.454,0.260,0.473,0.416,0.391,0.211,0.184,��,18.8,��
2016/05/03,13:50,0.449,0.263,0.470,0.416,0.394,0.211,0.184,��,15.7,��
2016/05/03,14:00,0.449,0.260,0.470,0.414,0.390,0.211,0.184,��,16.2,��
2016/05/03,14:10,0.452,0.261,0.476,0.419,0.393,0.211,0.184,��,16.4,��
2016/05/03,14:20,0.447,0.261,0.471,0.412,0.393,0.211,0.183,��,16.7,��
2016/05/03,14:30,0.450,0.260,0.471,0.416,0.389,0.210,0.186,��,18.0,��
2016/05/03,14:40,0.452,0.261,0.473,0.417,0.392,0.212,0.183,��,18.0,��
2016/05/03,14:50,0.446,0.261,0.470,0.412,0.392,0.209,0.184,��,16.6,��
2016/05/03,15:00,0.451,0.260,0.470,0.417,0.389,0.211,0.184,��,15.9,��
2016/05/03,15:10,0.449,0.261,0.473,0.417,0.394,0.211,0.184,��쐼,16.4,��
2016/05/03,15:20,0.445,0.259,0.470,0.413,0.390,0.210,0.183,��,14.3,��
2016/05/03,15:30,0.451,0.261,0.468,0.418,0.391,0.211,0.183,��,14.9,��
2016/05/03,15:40,0.445,0.263,0.474,0.416,0.393,0.210,0.183,��,14.1,��
2016/05/03,15:50,0.450,0.259,0.470,0.413,0.389,0.211,0.184,��쐼,12.1,��
2016/05/03,16:00,0.450,0.263,0.471,0.418,0.393,0.211,0.184,��쐼,10.7,��
2016/05/03,16:10,0.448,0.260,0.473,0.414,0.392,0.209,0.183,��,10.7,��
2016/05/03,16:20,0.452,0.262,0.467,0.418,0.391,0.211,0.184,��쐼,10.4,��
2016/05/03,16:30,0.446,0.262,0.472,0.417,0.395,0.211,0.183,��쐼,11.7,��
2016/05/03,16:40,0.449,0.259,0.471,0.415,0.389,0.211,0.184,��,10.5,��
2016/05/03,16:50,0.450,0.263,0.472,0.419,0.394,0.211,0.183,��쐼,11.7,��
2016/05/03,17:00,0.447,0.261,0.475,0.412,0.393,0.211,0.185,��쐼,12.1,��
2016/05/03,17:10,0.450,0.262,0.469,0.417,0.390,0.210,0.183,��쐼,11.9,��
2016/05/03,17:20,0.445,0.260,0.474,0.415,0.394,0.211,0.184,��쐼,11.2,��
2016/05/03,17:30,0.450,0.261,0.472,0.415,0.388,0.212,0.184,��쐼,12.9,��
2016/05/03,17:40,0.448,0.263,0.471,0.416,0.395,0.210,0.184,��쐼,13.4,��
2016/05/03,17:50,0.449,0.260,0.472,0.413,0.391,0.211,0.184,��쐼,12.8,��
2016/05/03,18:00,0.450,0.262,0.469,0.420,0.392,0.212,0.183,��쐼,14.6,��
2016/05/03,18:10,0.446,0.260,0.477,0.415,0.393,0.210,0.184,��쐼,15.3,��
2016/05/03,18:20,0.452,0.262,0.470,0.418,0.391,0.211,0.184,��쐼,16.0,��
2016/05/03,18:30,0.446,0.260,0.474,0.415,0.392,0.210,0.184,��쐼,15.1,��
2016/05/03,18:40,0.450,0.262,0.473,0.416,0.389,0.213,0.184,��쐼,15.1,��
2016/05/03,18:50,0.448,0.261,0.469,0.416,0.392,0.210,0.184,��,12.4,��
2016/05/03,19:00,0.449,0.261,0.473,0.417,0.390,0.211,0.184,��쐼,14.0,��
2016/05/03,19:10,0.450,0.261,0.471,0.418,0.394,0.212,0.184,��쐼,12.4,��
2016/05/03,19:20,0.447,0.261,0.475,0.414,0.390,0.211,0.184,��쐼,13.3,��
2016/05/03,19:30,0.450,0.260,0.468,0.417,0.394,0.212,0.184,��쐼,14.1,��
2016/05/03,19:40,0.446,0.261,0.475,0.415,0.389,0.211,0.185,��쐼,14.2,��
2016/05/03,19:50,0.451,0.261,0.471,0.419,0.394,0.211,0.184,��쐼,14.9,��
2016/05/03,20:00,0.448,0.260,0.473,0.414,0.390,0.211,0.182,��쐼,16.8,��
2016/05/03,20:10,0.450,0.262,0.473,0.419,0.394,0.212,0.183,��쐼,14.3,��
2016/05/03,20:20,0.450,0.260,0.471,0.416,0.390,0.209,0.184,��,11.8,��
2016/05/03,20:30,0.448,0.263,0.472,0.418,0.393,0.212,0.184,��쐼,14.2,��
2016/05/03,20:40,0.451,0.261,0.470,0.415,0.390,0.211,0.185,��쐼,14.8,��
2016/05/03,20:50,0.447,0.262,0.475,0.416,0.391,0.210,0.184,��쐼,15.2,��
2016/05/03,21:00,0.450,0.259,0.470,0.416,0.391,0.211,0.184,��쐼,16.3,��
2016/05/03,21:10,0.446,0.262,0.475,0.415,0.391,0.211,0.183,��,14.8,��
2016/05/03,21:20,0.451,0.260,0.469,0.417,0.393,0.212,0.184,��,15.4,��
2016/05/03,21:30,0.447,0.262,0.474,0.416,0.391,0.211,0.184,��,15.6,��
2016/05/03,21:40,0.450,0.259,0.469,0.419,0.393,0.211,0.184,��,13.4,��
2016/05/03,21:50,0.446,0.261,0.474,0.414,0.391,0.211,0.184,��,14.4,��
2016/05/03,22:00,0.449,0.260,0.472,0.419,0.391,0.212,0.184,��쐼,10.7,��
2016/05/03,22:10,0.447,0.261,0.472,0.415,0.391,0.211,0.184,��쐼,10.1,��
2016/05/03,22:20,0.451,0.260,0.474,0.418,0.393,0.211,0.184,��쐼,11.2,��
2016/05/03,22:30,0.447,0.263,0.470,0.414,0.391,0.209,0.184,��쐼,11.1,��
2016/05/03,22:40,0.452,0.261,0.472,0.419,0.394,0.213,0.183,��쐼,13.2,��
2016/05/03,22:50,0.447,0.261,0.468,0.414,0.389,0.210,0.184,��쐼,15.9,��
2016/05/03,23:00,0.448,0.260,0.475,0.418,0.394,0.211,0.183,��쐼,16.8,��
2016/05/03,23:10,0.450,0.263,0.469,0.414,0.388,0.210,0.184,��쐼,14.1,��
2016/05/03,23:20,0.447,0.261,0.473,0.417,0.394,0.211,0.184,��쐼,13.4,��
2016/05/03,23:30,0.451,0.261,0.471,0.416,0.390,0.212,0.185,��쐼,14.1,��
2016/05/03,23:40,0.447,0.261,0.473,0.415,0.392,0.211,0.184,��쐼,13.2,��
2016/05/03,23:50,0.450,0.262,0.472,0.418,0.392,0.212,0.184,��,11.2,��
